TimeCST,TemperatureF,Dew PointF,Humidity,Sea Level PressureIn,VisibilityMPH,Wind Direction,Wind SpeedMPH,Gust SpeedMPH,PrecipitationIn,Events,Conditions,WindDirDegrees,DateUTC
12:15 AM,21.7,16.9,82,30.39,10.0,NNW,11.5,-,N/A,,Overcast,330,2013-03-06 06:15:00
12:35 AM,21.2,16.3,82,30.40,10.0,North,12.7,-,N/A,,Overcast,350,2013-03-06 06:35:00
12:55 AM,21.2,16.3,82,30.39,10.0,NNW,13.8,-,N/A,,Overcast,330,2013-03-06 06:55:00
1:15 AM,21.0,16.3,82,30.40,10.0,NNW,12.7,-,N/A,,Overcast,340,2013-03-06 07:15:00
1:35 AM,20.7,16.3,83,30.40,10.0,North,10.4,16.1,N/A,,Overcast,360,2013-03-06 07:35:00
1:55 AM,20.5,16.2,83,30.40,10.0,NNW,12.7,16.1,N/A,,Overcast,340,2013-03-06 07:55:00
2:15 AM,20.3,16.3,85,30.40,10.0,North,10.4,-,N/A,,Overcast,350,2013-03-06 08:15:00
2:35 AM,20.3,16.2,84,30.40,10.0,North,9.2,-,N/A,,Overcast,360,2013-03-06 08:35:00
2:55 AM,19.9,15.8,84,30.39,10.0,North,11.5,-,N/A,,Overcast,360,2013-03-06 08:55:00
3:15 AM,19.4,15.8,86,30.39,10.0,North,9.2,-,N/A,,Overcast,350,2013-03-06 09:15:00
3:35 AM,19.4,16.2,87,30.39,10.0,North,8.1,-,N/A,,Overcast,10,2013-03-06 09:35:00
3:55 AM,18.9,15.6,87,30.39,10.0,NNE,10.4,-,N/A,,Overcast,20,2013-03-06 09:55:00
4:15 AM,18.5,15.6,89,30.39,10.0,North,3.5,-,N/A,,Overcast,10,2013-03-06 10:15:00
4:35 AM,18.7,15.8,89,30.39,10.0,NNE,3.5,-,N/A,,Overcast,20,2013-03-06 10:35:00
4:55 AM,18.5,15.6,89,30.40,10.0,North,5.8,-,N/A,,Overcast,360,2013-03-06 10:55:00
5:15 AM,18.3,15.3,88,30.40,10.0,North,4.6,-,N/A,,Overcast,10,2013-03-06 11:15:00
5:35 AM,18.3,15.4,89,30.40,10.0,NE,6.9,-,N/A,,Overcast,40,2013-03-06 11:35:00
5:55 AM,17.6,14.9,89,30.40,10.0,NNE,4.6,-,N/A,,Overcast,30,2013-03-06 11:55:00
6:15 AM,17.6,14.9,89,30.40,10.0,Calm,Calm,-,N/A,,Overcast,0,2013-03-06 12:15:00
6:35 AM,18.0,15.4,90,30.41,10.0,Calm,Calm,-,N/A,,Overcast,0,2013-03-06 12:35:00
6:55 AM,17.6,15.1,90,30.41,10.0,Calm,Calm,-,N/A,,Overcast,0,2013-03-06 12:55:00
7:15 AM,17.8,15.3,90,30.40,10.0,Calm,Calm,-,N/A,,Overcast,0,2013-03-06 13:15:00
7:35 AM,18.0,15.4,90,30.40,10.0,Calm,Calm,-,N/A,,Overcast,0,2013-03-06 13:35:00
7:55 AM,17.6,15.4,91,30.41,10.0,Calm,Calm,-,N/A,Snow,Light Snow,0,2013-03-06 13:55:00
8:15 AM,17.6,15.3,91,30.41,10.0,Calm,Calm,-,N/A,Snow,Light Snow,0,2013-03-06 14:15:00
8:35 AM,18.1,15.8,91,30.40,10.0,Calm,Calm,-,N/A,Snow,Light Snow,0,2013-03-06 14:35:00
8:55 AM,18.5,16.0,90,30.40,10.0,SE,4.6,-,N/A,,Overcast,130,2013-03-06 14:55:00
9:15 AM,19.2,16.5,89,30.40,10.0,East,4.6,-,N/A,,Overcast,80,2013-03-06 15:15:00
9:35 AM,19.2,16.2,88,30.40,10.0,Calm,Calm,-,N/A,,Overcast,0,2013-03-06 15:35:00
9:55 AM,19.9,16.7,87,30.41,10.0,SSE,4.6,-,N/A,,Overcast,150,2013-03-06 15:55:00
10:15 AM,20.1,16.7,87,30.41,10.0,Calm,Calm,-,N/A,,Overcast,0,2013-03-06 16:15:00
10:35 AM,21.0,17.2,85,30.40,10.0,Calm,Calm,-,N/A,,Overcast,0,2013-03-06 16:35:00
10:55 AM,21.4,17.6,85,30.40,10.0,SW,3.5,-,N/A,,Overcast,220,2013-03-06 16:55:00
11:15 AM,21.9,17.6,83,30.40,10.0,Calm,Calm,-,N/A,,Overcast,0,2013-03-06 17:15:00
11:35 AM,22.3,17.8,83,30.39,10.0,SW,4.6,-,N/A,,Overcast,220,2013-03-06 17:35:00
11:55 AM,23.5,18.7,82,30.39,10.0,South,6.9,-,N/A,,Overcast,180,2013-03-06 17:55:00
12:15 PM,24.4,18.1,77,30.38,10.0,Calm,Calm,-,N/A,,Mostly Cloudy,0,2013-03-06 18:15:00
12:35 PM,25.0,18.9,78,30.38,10.0,SSE,4.6,-,N/A,,Scattered Clouds,160,2013-03-06 18:35:00
12:55 PM,26.1,19.8,77,30.37,10.0,SSE,5.8,-,N/A,,Scattered Clouds,160,2013-03-06 18:55:00
1:15 PM,27.1,20.5,76,30.34,10.0,SSE,4.6,-,N/A,,Scattered Clouds,150,2013-03-06 19:15:00
1:35 PM,28.2,20.5,73,30.32,10.0,SE,4.6,-,N/A,,Clear,140,2013-03-06 19:35:00
1:55 PM,29.5,21.2,71,30.31,10.0,SSE,6.9,-,N/A,,Clear,160,2013-03-06 19:55:00
2:15 PM,30.4,21.2,69,30.30,10.0,SSE,6.9,-,N/A,,Clear,150,2013-03-06 20:15:00
2:35 PM,31.6,21.9,67,30.29,10.0,SSE,6.9,-,N/A,,Clear,150,2013-03-06 20:35:00
2:55 PM,32.0,21.2,64,30.28,10.0,SE,6.9,-,N/A,,Clear,130,2013-03-06 20:55:00
3:15 PM,32.9,21.4,63,30.28,10.0,SSE,9.2,-,N/A,,Clear,150,2013-03-06 21:15:00
3:35 PM,33.8,22.8,64,30.27,10.0,SSE,10.4,-,N/A,,Clear,150,2013-03-06 21:35:00
3:55 PM,34.0,22.5,63,30.27,10.0,SSE,10.4,-,N/A,,Clear,160,2013-03-06 21:55:00
4:15 PM,34.5,22.3,61,30.26,10.0,SSE,11.5,-,N/A,,Clear,150,2013-03-06 22:15:00
4:35 PM,34.7,22.8,62,30.25,10.0,SE,10.4,-,N/A,,Clear,130,2013-03-06 22:35:00
4:55 PM,34.9,22.8,61,30.24,10.0,SSE,11.5,17.3,N/A,,Clear,150,2013-03-06 22:55:00
5:15 PM,34.9,23.5,63,30.24,10.0,SE,12.7,-,N/A,,Clear,130,2013-03-06 23:15:00
5:35 PM,34.2,23.2,64,30.23,10.0,SE,11.5,-,N/A,,Clear,130,2013-03-06 23:35:00
5:55 PM,33.1,22.8,66,30.22,10.0,SE,11.5,-,N/A,,Clear,130,2013-03-06 23:55:00
6:15 PM,32.4,22.1,66,30.22,10.0,SE,10.4,-,N/A,,Clear,130,2013-03-07 00:15:00
6:35 PM,32.0,23.0,69,30.22,10.0,SE,9.2,-,N/A,,Clear,130,2013-03-07 00:35:00
6:55 PM,31.5,23.0,71,30.22,10.0,ESE,9.2,-,N/A,,Clear,120,2013-03-07 00:55:00
7:15 PM,31.1,23.4,73,30.22,10.0,SE,9.2,-,N/A,,Clear,130,2013-03-07 01:15:00
7:35 PM,30.6,23.7,76,30.22,10.0,SE,6.9,-,N/A,,Clear,130,2013-03-07 01:35:00
7:55 PM,30.2,23.9,77,30.21,10.0,SE,6.9,-,N/A,,Clear,130,2013-03-07 01:55:00
8:15 PM,29.7,23.5,78,30.21,10.0,ESE,6.9,-,N/A,,Clear,120,2013-03-07 02:15:00
8:35 PM,29.7,23.0,76,30.21,10.0,ESE,6.9,-,N/A,,Clear,120,2013-03-07 02:35:00
8:55 PM,29.1,23.5,80,30.21,10.0,SE,9.2,-,N/A,,Clear,140,2013-03-07 02:55:00
9:15 PM,29.1,23.4,79,30.21,10.0,SE,9.2,-,N/A,,Clear,140,2013-03-07 03:15:00
9:35 PM,29.1,23.0,78,30.21,10.0,SE,8.1,-,N/A,,Clear,130,2013-03-07 03:35:00
9:55 PM,27.9,23.0,82,30.21,10.0,SE,8.1,-,N/A,,Clear,130,2013-03-07 03:55:00
10:15 PM,27.5,23.0,83,30.21,10.0,SE,9.2,-,N/A,,Clear,130,2013-03-07 04:15:00
10:35 PM,27.3,23.2,84,30.20,10.0,SE,10.4,-,N/A,,Clear,130,2013-03-07 04:35:00
10:55 PM,27.1,23.2,85,30.21,10.0,SE,11.5,-,N/A,,Clear,130,2013-03-07 04:55:00
11:15 PM,26.8,23.2,86,30.22,10.0,SE,10.4,-,N/A,,Clear,130,2013-03-07 05:15:00
11:35 PM,26.4,23.2,88,30.21,10.0,SE,11.5,-,N/A,,Clear,130,2013-03-07 05:35:00
11:55 PM,26.2,23.0,88,30.21,10.0,SE,12.7,-,N/A,,Clear,130,2013-03-07 05:55:00